Weather History for KHUT - December, 2012

Change the Weather History Date:

Sunday, December 23, 2012

  Actual Average Record
Temperature  
Mean Temperature 26 °F -  
Max Temperature 32 °F 41 °F 54 °F (2005)
Min Temperature 19 °F 17 °F 0 °F (2013)
Degree Days  
Heating Degree Days 40    
Moisture  
Dew Point 19 °F    
Average Humidity 79    
Maximum Humidity 93    
Minimum Humidity 64    
Precipitation  
Precipitation 0.00 in - - ()
Sea Level Pressure  
Sea Level Pressure 29.98 in    
Wind  
Wind Speed 9 mph (North)    
Max Wind Speed 15 mph    
Max Gust Speed -    
Visibility 6 miles    
Events      
Averages and records for this station are not official NWS values.
T = Trace of Precipitation, MM = Missing Value Source: NWS Daily Summary

Daily Weather History Graph

Daily Weather History Graph

Search for Another Location

Airport or City:

Trip Planner

Search our weather history database for the weather conditions in past years. The results will help you decide how hot, cold, wet, or windy it might be!

Date:

Astronomy

Dec. 23, 2012 Rise Set
Actual Time 7:45 AM CST 5:16 PM CST
Civil Twilight 7:15 AM CST 5:46 PM CST
Nautical Twilight 6:42 AM CST 6:19 PM CST
Astronomical Twilight 6:10 AM CST 6:51 PM CST
Moon 2:06 PM CST (12/23) 3:31 AM CST (12/23)
Length of Visible Light 10h 30m
Length of Day
9h 31m
Waxing Gibbous, 82% of the Moon is Illuminated
Dec 23
Waxing Gibbous
Dec 28
Full
Jan 4
Last Quarter
Jan 11
New
Jan 18
First Quarter

Hourly Weather History & Observations

Time (CST) Temp. Windchill Dew Point Humidity Pressure Visibility Wind Dir Wind Speed Gust Speed Precip Events Conditions
12:52 AM 32.0 °F 25.6 °F 24.1 °F 73% 29.95 in 10.0 mi North 6.9 mph - N/A   Clear
1:52 AM 30.0 °F 21.7 °F 23.0 °F 75% 29.95 in 10.0 mi North 9.2 mph - N/A   Clear
2:52 AM 28.0 °F 16.5 °F 23.0 °F 81% 29.95 in 9.0 mi NNE 15.0 mph - N/A   Clear
3:52 AM 26.1 °F 15.0 °F 21.9 °F 84% 29.96 in 7.0 mi North 12.7 mph - N/A   Clear
4:52 AM 24.1 °F 15.2 °F 19.9 °F 84% 29.95 in 6.0 mi North 8.1 mph - N/A   Clear
5:39 AM 21.2 °F 10.9 °F 19.4 °F 93% 29.96 in 6.0 mi North 9.2 mph - N/A   Partly Cloudy
5:52 AM 21.9 °F 11.7 °F 18.0 °F 85% 29.98 in 6.0 mi North 9.2 mph - N/A   Clear
6:52 AM 19.9 °F 11.1 °F 16.0 °F 85% 29.99 in 4.0 mi North 6.9 mph - N/A   Clear
7:08 AM 19.4 °F 11.5 °F 15.8 °F 86% 29.97 in 4.0 mi North 5.8 mph - N/A   Scattered Clouds
7:17 AM 19.4 °F 9.5 °F 15.8 °F 86% 29.97 in 4.0 mi North 8.1 mph - N/A   Mostly Cloudy
7:52 AM 19.9 °F 11.1 °F 16.0 °F 85% 30.01 in 4.0 mi North 6.9 mph - N/A   Overcast
8:14 AM 19.4 °F 8.6 °F 15.8 °F 86% 29.99 in 2.5 mi North 9.2 mph - N/A   Overcast
8:52 AM 19.9 °F 8.6 °F 16.0 °F 85% 30.02 in 2.5 mi North 10.4 mph - N/A   Overcast
9:52 AM 19.9 °F 10.1 °F 17.1 °F 89% 30.01 in 2.0 mi NNE 8.1 mph - N/A   Overcast
10:52 AM 21.0 °F 9.9 °F 18.0 °F 88% 30.02 in 2.5 mi NNW 10.4 mph - N/A   Overcast
11:39 AM 23.0 °F 13.1 °F 17.6 °F 80% 29.98 in 3.0 mi North 9.2 mph - N/A   Haze
11:52 AM 23.0 °F 11.7 °F 18.0 °F 81% 30.01 in 3.0 mi NNW 11.5 mph - N/A   Haze
12:52 PM 28.0 °F 18.1 °F 19.9 °F 72% 29.96 in 5.0 mi North 11.5 mph - N/A   Haze
1:52 PM 30.0 °F 19.5 °F 21.0 °F 69% 29.93 in 5.0 mi North 13.8 mph - N/A   Haze
2:52 PM 32.0 °F 21.6 °F 21.0 °F 64% 29.94 in 6.0 mi NNW 15.0 mph - N/A   Haze
3:52 PM 30.9 °F 22.8 °F 19.9 °F 64% 29.95 in 7.0 mi North 9.2 mph - N/A   Clear
4:52 PM 28.9 °F 19.8 °F 19.0 °F 67% 29.95 in 7.0 mi NNW 10.4 mph - N/A   Clear
5:52 PM 27.0 °F 19.5 °F 19.0 °F 72% 29.98 in 8.0 mi NNW 6.9 mph - N/A   Clear
6:52 PM 26.1 °F 20.5 °F 19.0 °F 75% 30.00 in 7.0 mi North 4.6 mph - N/A   Clear
7:52 PM 25.0 °F 17.1 °F 19.0 °F 78% 30.01 in 7.0 mi North 6.9 mph - N/A   Clear
8:52 PM 25.0 °F 19.3 °F 18.0 °F 75% 30.01 in 8.0 mi North 4.6 mph - N/A   Clear
9:52 PM 23.0 °F 12.4 °F 17.1 °F 78% 30.05 in 8.0 mi NNW 10.4 mph - N/A   Clear
10:52 PM 21.0 °F 13.4 °F 16.0 °F 81% 30.05 in 7.0 mi NNW 5.8 mph - N/A   Clear
11:52 PM 21.0 °F 9.9 °F 16.0 °F 81% 30.05 in 7.0 mi NNW 10.4 mph - N/A   Clear